This demonstration page uses our WeatherBlox Daily Observations layout. Learn more.

Left ArrowRight Arrow

39.01783, -85.05884

Hourly Observations for May 4, 2019

Temp ( °F °C ) Dew Point ( °F °C ) Humidity (%) Winds ( mph kmh ) Pressure ( in mb ) Visibility ( mi km ) Precip ( " mm )
12:52 am 00:52 Mostly Cloudy 62 16.7 58 14.4 86 86 NNW 5 7 29.93 1014 10 16 0.00 0.00
1:52 am 01:52 Mostly Cloudy 61 16.1 57 13.9 87 87 NNW 6 9 29.91 1013 8 13 0.00 0.00
2:52 am 02:52 Cloudy with Mist and Fog 60 15.6 56 13.3 86 86 NNW 8 13 29.90 1013 6 10 0.00 0.00
3:52 am 03:52 Cloudy with Mist and Fog 59 15 55 12.8 87 87 N 9 15 29.91 1013 6 10 0.00 0.00
4:52 am 04:52 Cloudy with Light Rain 58 14.4 55 12.8 90 90 NNE 6 9 29.92 1013 5 8 0.00 0.03
5:52 am 05:52 Cloudy with Rain 58 14.4 55 12.8 90 90 E 7 11 29.90 1013 4 6 0.02 0.51
6:35 am 06:35 Cloudy with Mist and Fog 58 14.4 56 13.3 93 93 E 6 9 29.91 1013 3 4 0.01 0.25
6:52 am 06:52 Cloudy with Mist and Fog 58 14.4 56 13.3 93 93 N 6 9 29.91 1013 3 4 0.01 0.25
7:02 am 07:02 Cloudy with Mist and Fog 58 14.4 56 13.3 93 93 N 6 9 29.92 1013 2 2 0.00 0.00
7:52 am 07:52 Cloudy with Mist and Fog 58 14.4 56 13.3 93 93 N 5 7 29.91 1013 2 2 0.00 0.00
8:52 am 08:52 Cloudy with Mist and Fog 59 15 56 13.3 90 90 NNE 6 9 29.91 1013 2 2 0.00 0.00
8:58 am 08:58 Cloudy with Mist and Fog 59 15 56 13.3 90 90 NNE 7 11 29.92 1013 1 2 0.00 0.00
9:52 am 09:52 Cloudy with Mist and Fog 59 15 56 13.3 90 90 N 10 17 29.91 1013 1 2 0.00 0.03
10:52 am 10:52 Cloudy with Mist and Fog 58 14.4 55 12.8 90 90 NNE 9 15 29.91 1013 1 2 0.00 0.00
11:41 am 11:41 Cloudy with Mist and Fog 58 14.4 55 12.8 90 90 NNW 10 17 29.93 1013 2 3 0.00 0.00
11:52 am 11:52 Cloudy with Mist and Fog 58 14.4 55 12.8 90 90 N 10 17 29.91 1013 2 3 0.00 0.00
12:32 pm 12:32 Cloudy with Mist and Fog 58 14.4 54 12.2 87 87 NNE 12 19 29.93 1013 2 3 0.00 0.00
12:52 pm 12:52 Cloudy with Mist and Fog 58 14.4 54 12.2 87 87 NNE 12 19 29.91 1013 2 3 0.00 0.00
1:52 pm 13:52 Cloudy with Mist and Fog 57 13.9 53 11.7 87 87 NNE 12 19 29.91 1013 2 3 0.00 0.00
2:52 pm 14:52 Cloudy with Light Rain 57 13.9 54 12.2 90 90 NNE 12 19 29.89 1012 2 3 0.00 0.03
3:52 pm 15:52 Cloudy with Light Rain 57 13.9 53 11.7 87 87 NNE 9 15 29.87 1012 2 3 0.03 0.76
4:52 pm 16:52 Cloudy with Light Rain 56 13.3 53 11.7 90 90 NNE 8 13 29.86 1011 2 3 0.03 0.76
5:52 pm 17:52 Cloudy with Light Rain 57 13.9 54 12.2 90 90 NE 10 17 29.85 1011 3 4 0.03 0.76
6:20 pm 18:20 Cloudy with Light Rain 57 13.9 54 12.2 90 90 NE 12 19 29.86 1011 3 4 0.02 0.51
6:52 pm 18:52 Cloudy with Light Rain 56 13.3 54 12.2 93 93 NNE 12 19 29.85 1011 7 11 0.03 0.76
7:52 pm 19:52 Cloudy with Light Rain 57 13.9 54 12.2 90 90 ENE 8 13 29.83 1010 7 11 0.01 0.25
8:52 pm 20:52 Cloudy 57 13.9 54 12.2 90 90 NNE 9 15 29.83 1010 8 13 0.00 0.03
9:52 pm 21:52 Cloudy 57 13.9 54 12.2 90 90 NNE 10 17 29.83 1010 9 14 0.00 0.00
10:50 pm 22:50 Cloudy 57 14 54 12 88 88 NNE 12 19 29.85 1011 10 16 0.00 0.00
10:52 pm 22:52 Cloudy 57 13.9 53 11.7 87 87 NNE 10 17 29.84 1011 10 16 0.00 0.00
11:03 pm 23:03 Cloudy 56 13.3 53 11.7 90 90 N 8 13 29.85 1011 9 14 0.00 0.00
11:22 pm 23:22 Cloudy with Mist and Fog 56 13.3 53 11.7 90 90 N 10 17 29.85 1011 6 10 0.00 0.00
11:52 pm 23:52 Cloudy 55 12.8 52 11.1 90 90 N 9 15 29.83 1010 7 11 0.00 0.00

Powered by AerisWeather